Location: 22
(39.7117°N, 89.5929°W)
Time: 00:56:15
(UTC-05:00)

A-11 Canister half - Pass Details

Date: 13 June 2023
Orbit: 1524 x 1684 km, 47.3° (Epoch: 29 September)

Event Time Altitude Azimuth Distance (km) Brightness Sun altitude
Rises 22:34:15 0° 283° (WNW) 4,674 12.3 -18.6°
Reaches altitude 10° 22:37:24 10° 288° (WNW) 3,690 11.7 -18.9°
Maximum altitude 22:46:28 55° 6° (N) 1,794 9.6 -19.9°
Drops below altitude 10° 22:55:42 10° 83° (E) 3,747 10.8 -20.8°
Sets 22:58:55 0° 88° (E) 4,750 11.3 -21.1°
